| time (UTC) | temp C | wind direction | speed KPH | gust KPH | rain 1hr cm | rain 24hr cm | rain mn cm | humidity % | barometer mb |
| 20260502205003 | 23 | 262 | 8.0 | 20.9 | 0.00 | 0.00 | 0.00 | 38 | 1019.7 |
| 20260502204504 | 23 | 264 | 12.9 | 17.7 | 0.00 | 0.00 | 0.00 | 39 | 1019.8 |
| 20260502204002 | 23 | 275 | 17.7 | 17.7 | 0.00 | 0.00 | 0.00 | 38 | 1019.9 |
| 20260502203032 | 22 | 314 | 14.5 | 14.5 | 0.00 | 0.00 | 0.00 | 37 | 1020.1 |
| 20260502202502 | 22 | 137 | 4.8 | 14.5 | 0.00 | 0.00 | 0.00 | 39 | 1020.2 |
| 20260502202032 | 22 | 263 | 6.4 | 12.9 | 0.00 | 0.00 | 0.00 | 41 | 1020.3 |
| 20260502201532 | 22 | 259 | 8.0 | 22.5 | 0.00 | 0.00 | 0.00 | 41 | 1020.4 |
| 20260502201002 | 22 | 293 | 20.9 | 22.5 | 0.00 | 0.00 | 0.00 | 39 | 1020.4 |
| 20260502200003 | 22 | 358 | 4.8 | 17.7 | 0.00 | 0.00 | 0.00 | 40 | 1020.4 |
| 20260502195502 | 22 | 272 | 8.0 | 14.5 | 0.00 | 0.00 | 0.00 | 40 | 1020.4 |
| 20260502195003 | 22 | 332 | 11.3 | 20.9 | 0.00 | 0.00 | 0.00 | 38 | 1020.5 |
| 20260502194503 | 22 | 277 | 3.2 | 20.9 | 0.00 | 0.00 | 0.00 | 38 | 1020.5 |
| 20260502193002 | 22 | 277 | 11.3 | 17.7 | 0.00 | 0.00 | 0.00 | 39 | 1020.6 |
| 20260502192502 | 22 | 350 | 9.7 | 17.7 | 0.00 | 0.00 | 0.00 | 39 | 1020.6 |
| 20260502192003 | 22 | 30 | 6.4 | 19.3 | 0.00 | 0.00 | 0.00 | 39 | 1020.6 |
| 20260502190502 | 22 | 218 | 4.8 | 17.7 | 0.00 | 0.00 | 0.00 | 39 | 1020.8 |
| 20260502190002 | 22 | 138 | 6.4 | 19.3 | 0.00 | 0.00 | 0.00 | 37 | 1020.9 |
| 20260502185502 | 22 | 320 | 6.4 | 19.3 | 0.00 | 0.00 | 0.00 | 38 | 1021.0 |
| 20260502185002 | 22 | 255 | 9.7 | 19.3 | 0.00 | 0.00 | 0.00 | 39 | 1021.0 |
| 20260502184503 | 22 | 299 | 14.5 | 20.9 | 0.00 | 0.00 | 0.00 | 40 | 1021.1 |
| 20260502184002 | 22 | 6 | 17.7 | 20.9 | 0.00 | 0.00 | 0.00 | 37 | 1021.1 |
| 20260502183503 | 22 | 356 | 6.4 | 19.3 | 0.00 | 0.00 | 0.00 | 38 | 1021.2 |
| 20260502182502 | 22 | 13 | 11.3 | 19.3 | 0.00 | 0.00 | 0.00 | 36 | 1021.4 |
| 20260502182033 | 21 | 243 | 4.8 | 24.1 | 0.00 | 0.00 | 0.00 | 37 | 1021.4 |
| 20260502181503 | 22 | 305 | 24.1 | 24.1 | 0.00 | 0.00 | 0.00 | 38 | 1021.5 |
| 20260502181033 | 22 | 315 | 19.3 | 24.1 | 0.00 | 0.00 | 0.00 | 37 | 1021.6 |
| 20260502180533 | 21 | 350 | 4.8 | 17.7 | 0.00 | 0.00 | 0.00 | 38 | 1021.6 |
| 20260502170504 | 21 | 300 | 12.9 | 17.7 | 0.00 | 0.00 | 0.00 | 35 | 1022.2 |
| 20260502164002 | 21 | 49 | 8.0 | 11.3 | 0.00 | 0.00 | 0.00 | 34 | 1022.4 |
| 20260502163503 | 21 | 337 | 4.8 | 12.9 | 0.00 | 0.00 | 0.00 | 35 | 1022.4 |
| 20260502162502 | 20 | 1 | 11.3 | 16.1 | 0.00 | 0.00 | 0.00 | 33 | 1022.4 |
| 20260502161503 | 20 | 293 | 6.4 | 14.5 | 0.00 | 0.00 | 0.00 | 38 | 1022.2 |
| 20260502161003 | 20 | 310 | 3.2 | 14.5 | 0.00 | 0.00 | 0.00 | 37 | 1022.2 |
| 20260502152003 | 19 | 338 | 14.5 | 14.5 | 0.00 | 0.00 | 0.00 | 38 | 1022.1 |
| 20260502151502 | 18 | 301 | 11.3 | 14.5 | 0.00 | 0.00 | 0.00 | 39 | 1022.1 |
| 20260502150532 | 18 | 347 | 6.4 | 14.5 | 0.00 | 0.00 | 0.00 | 40 | 1022.1 |
| 20260502130503 | 13 | 347 | 8.0 | 8.0 | 0.00 | 0.00 | 0.00 | 68 | 1021.6 |
| 20260502123533 | 12 | 335 | 6.4 | 8.0 | 0.00 | 0.00 | 0.00 | 67 | 1021.2 |
| 20260502123033 | 12 | 320 | 8.0 | 8.0 | 0.00 | 0.00 | 0.00 | 69 | 1021.2 |
| 20260502122533 | 12 | 319 | 8.0 | 9.7 | 0.00 | 0.00 | 0.00 | 69 | 1021.1 |
| 20260502122033 | 11 | 314 | 9.7 | 9.7 | 0.00 | 0.00 | 0.00 | 70 | 1021.0 |
| 20260502121503 | 11 | 314 | 8.0 | 11.3 | 0.00 | 0.00 | 0.00 | 73 | 1020.9 |
| 20260502121033 | 11 | 318 | 9.7 | 11.3 | 0.00 | 0.00 | 0.00 | 75 | 1020.8 |
| 20260502120533 | 11 | 316 | 9.7 | 11.3 | 0.00 | 0.00 | 0.00 | 77 | 1020.7 |
| 20260502115533 | 11 | 305 | 8.0 | 11.3 | 0.00 | 0.00 | 0.00 | 76 | 1020.6 |
| 20260502115033 | 11 | 299 | 9.7 | 11.3 | 0.00 | 0.00 | 0.00 | 76 | 1020.5 |
| 20260502113533 | 11 | 313 | 8.0 | 11.3 | 0.00 | 0.00 | 0.00 | 76 | 1020.3 |
| 20260502113033 | 11 | 313 | 9.7 | 11.3 | 0.00 | 0.00 | 0.00 | 75 | 1020.1 |
| 20260502112503 | 11 | 315 | 8.0 | 11.3 | 0.00 | 0.00 | 0.00 | 76 | 1020.1 |
| 20260502112003 | 11 | 314 | 9.7 | 11.3 | 0.00 | 0.00 | 0.00 | 76 | 1020.0 |
| 20260502111533 | 11 | 302 | 8.0 | 11.3 | 0.00 | 0.00 | 0.00 | 76 | 1020.0 |
| 20260502111033 | 11 | 302 | 9.7 | 12.9 | 0.00 | 0.00 | 0.00 | 77 | 1020.0 |
| 20260502110534 | 11 | 297 | 11.3 | 14.5 | 0.00 | 0.00 | 0.00 | 81 | 1020.0 |
| 20260502110033 | 10 | 296 | 11.3 | 14.5 | 0.00 | 0.00 | 0.00 | 82 | 1020.0 |
| 20260502105503 | 10 | 297 | 11.3 | 14.5 | 0.00 | 0.00 | 0.00 | 83 | 1019.8 |
| 20260502104003 | 10 | 292 | 11.3 | 16.1 | 0.00 | 0.00 | 0.00 | 82 | 1019.8 |
| 20260502103503 | 10 | 283 | 12.9 | 16.1 | 0.00 | 0.00 | 0.00 | 83 | 1019.8 |
| 20260502103003 | 10 | 276 | 12.9 | 14.5 | 0.00 | 0.00 | 0.00 | 83 | 1019.7 |
| 20260502102503 | 10 | 273 | 11.3 | 12.9 | 0.00 | 0.00 | 0.00 | 83 | 1019.7 |
| 20260502102003 | 11 | 283 | 11.3 | 12.9 | 0.00 | 0.00 | 0.00 | 79 | 1019.6 |
| 20260502101003 | 11 | 298 | 12.9 | 14.5 | 0.00 | 0.00 | 0.00 | 76 | 1019.4 |
| 20260502091503 | 12 | 298 | 9.7 | 11.3 | 0.00 | 0.00 | 0.00 | 77 | 1019.4 |
| 20260502091003 | 12 | 294 | 9.7 | 11.3 | 0.00 | 0.00 | 0.00 | 79 | 1019.4 |
| 20260502090503 | 12 | 292 | 9.7 | 11.3 | 0.00 | 0.00 | 0.00 | 78 | 1019.4 |
| 20260502071003 | 11 | 277 | 9.7 | 11.3 | 0.00 | 0.00 | 0.00 | 90 | 1019.6 |
| 20260502070503 | 11 | 278 | 11.3 | 11.3 | 0.00 | 0.00 | 0.00 | 91 | 1019.6 |
| 20260502070003 | 11 | 278 | 11.3 | 11.3 | 0.00 | 0.00 | 0.00 | 91 | 1019.7 |
| 20260502065503 | 11 | 258 | 8.0 | 9.7 | 0.00 | 0.00 | 0.00 | 92 | 1019.7 |
| 20260502065003 | 11 | 253 | 8.0 | 8.0 | 0.00 | 0.00 | 0.00 | 92 | 1019.6 |
| 20260502064003 | 11 | 232 | 8.0 | 8.0 | 0.00 | 0.00 | 0.00 | 93 | 1019.7 |
| 20260502063503 | 11 | 243 | 8.0 | 8.0 | 0.00 | 0.00 | 0.00 | 92 | 1019.7 |
| 20260502063003 | 11 | 225 | 6.4 | 8.0 | 0.00 | 0.00 | 0.00 | 93 | 1019.6 |
| 20260502062503 | 11 | 235 | 4.8 | 8.0 | 0.00 | 0.00 | 0.00 | 91 | 1019.6 |
| 20260502062033 | 12 | 213 | 8.0 | 9.7 | 0.00 | 0.00 | 0.00 | 86 | 1019.6 |
| 20260502061533 | 12 | 193 | 4.8 | 9.7 | 0.00 | 0.00 | 0.00 | 84 | 1019.6 |
| 20260502061033 | 12 | 171 | 6.4 | 9.7 | 0.00 | 0.00 | 0.00 | 81 | 1019.6 |
| 20260502060503 | 13 | 141 | 3.2 | 4.8 | 0.00 | 0.00 | 0.00 | 80 | 1019.6 |
| 20260502060033 | 13 | 348 | 4.8 | 6.4 | 0.00 | 0.00 | 0.00 | 80 | 1019.6 |
| 20260502055003 | 13 | 342 | 4.8 | 8.0 | 0.00 | 0.00 | 0.00 | 77 | 1019.6 |
| 20260502054504 | 14 | 349 | 6.4 | 9.7 | 0.00 | 0.00 | 0.00 | 76 | 1019.6 |
| 20260502054003 | 14 | 6 | 8.0 | 9.7 | 0.00 | 0.00 | 0.00 | 74 | 1019.6 |
| 20260502053503 | 15 | 9 | 9.7 | 9.7 | 0.00 | 0.00 | 0.00 | 73 | 1019.5 |
| 20260502053003 | 15 | 8 | 6.4 | 6.4 | 0.00 | 0.00 | 0.00 | 74 | 1019.5 |
| 20260502052533 | 14 | 348 | 4.8 | 6.4 | 0.00 | 0.00 | 0.00 | 77 | 1019.5 |
| 20260502051533 | 14 | 302 | 4.8 | 6.4 | 0.00 | 0.00 | 0.00 | 80 | 1019.4 |
| 20260502051033 | 13 | 276 | 4.8 | 8.0 | 0.00 | 0.00 | 0.00 | 84 | 1019.4 |
| 20260502050533 | 13 | 271 | 4.8 | 8.0 | 0.00 | 0.00 | 0.00 | 84 | 1019.3 |
| 20260502050003 | 13 | 248 | 6.4 | 6.4 | 0.00 | 0.00 | 0.00 | 85 | 1019.3 |
| 20260502044504 | 13 | 238 | 8.0 | 8.0 | 0.00 | 0.00 | 0.00 | 86 | 1019.1 |
| 20260502044003 | 13 | 239 | 8.0 | 8.0 | 0.00 | 0.00 | 0.00 | 82 | 1019.0 |
| 20260502043503 | 14 | 216 | 6.4 | 8.0 | 0.00 | 0.00 | 0.00 | 79 | 1019.0 |
| 20260502043003 | 15 | 233 | 6.4 | 6.4 | 0.00 | 0.00 | 0.00 | 78 | 1019.0 |
| 20260502042503 | 15 | 264 | 4.8 | 8.0 | 0.00 | 0.00 | 0.00 | 73 | 1019.1 |
| 20260502042003 | 15 | 292 | 6.4 | 8.0 | 0.00 | 0.00 | 0.00 | 73 | 1019.3 |
| 20260502041004 | 15 | 288 | 6.4 | 8.0 | 0.00 | 0.00 | 0.00 | 70 | 1019.3 |
| 20260502040503 | 15 | 305 | 6.4 | 8.0 | 0.00 | 0.00 | 0.00 | 72 | 1019.3 |
| 20260502035503 | 15 | 315 | 4.8 | 8.0 | 0.00 | 0.00 | 0.00 | 72 | 1019.2 |
| 20260502035004 | 15 | 305 | 8.0 | 8.0 | 0.00 | 0.00 | 0.00 | 72 | 1019.2 |
| 20260502034503 | 15 | 305 | 4.8 | 6.4 | 0.00 | 0.00 | 0.00 | 72 | 1019.2 |
| 20260502034003 | 15 | 313 | 4.8 | 4.8 | 0.00 | 0.00 | 0.00 | 72 | 1019.2 |
| 20260502033503 | 15 | 320 | 3.2 | 4.8 | 0.00 | 0.00 | 0.00 | 72 | 1019.2 |
| 20260502033003 | 15 | 309 | 3.2 | 6.4 | 0.00 | 0.00 | 0.00 | 73 | 1019.2 |
| 20260502032504 | 15 | 290 | 4.8 | 6.4 | 0.00 | 0.00 | 0.00 | 72 | 1019.1 |
| 20260502031506 | 16 | 321 | 6.4 | 8.0 | 0.00 | 0.00 | 0.00 | 73 | 1019.1 |
| 20260502031003 | 16 | 304 | 6.4 | 8.0 | 0.00 | 0.00 | 0.00 | 72 | 1019.1 |
| 20260502030503 | 16 | 308 | 6.4 | 8.0 | 0.00 | 0.00 | 0.00 | 73 | 1019.0 |
| 20260502030003 | 16 | 303 | 4.8 | 8.0 | 0.00 | 0.00 | 0.00 | 73 | 1018.9 |
| 20260502025504 | 16 | 294 | 8.0 | 8.0 | 0.00 | 0.00 | 0.00 | 73 | 1018.9 |
| 20260502025003 | 16 | 302 | 4.8 | 6.4 | 0.00 | 0.00 | 0.00 | 75 | 1018.8 |
| 20260502024503 | 16 | 317 | 6.4 | 6.4 | 0.00 | 0.00 | 0.00 | 75 | 1018.8 |
| 20260502024003 | 16 | 292 | 6.4 | 6.4 | 0.00 | 0.00 | 0.00 | 74 | 1018.8 |
| 20260502023503 | 16 | 296 | 6.4 | 8.0 | 0.00 | 0.00 | 0.00 | 75 | 1018.7 |
| 20260502023003 | 16 | 285 | 6.4 | 8.0 | 0.00 | 0.00 | 0.00 | 74 | 1018.6 |
| 20260502022503 | 16 | 275 | 8.0 | 8.0 | 0.00 | 0.00 | 0.00 | 72 | 1018.6 |
| 20260502022003 | 16 | 258 | 4.8 | 4.8 | 0.00 | 0.00 | 0.00 | 75 | 1018.5 |
| 20260502021503 | 16 | 252 | 3.2 | 4.8 | 0.00 | 0.00 | 0.00 | 74 | 1018.4 |
| 20260502021003 | 16 | 232 | 4.8 | 6.4 | 0.00 | 0.00 | 0.00 | 73 | 1018.2 |
| 20260502020003 | 16 | 251 | 4.8 | 4.8 | 0.00 | 0.00 | 0.00 | 71 | 1018.1 |
| 20260502015503 | 16 | 312 | 1.6 | 4.8 | 0.00 | 0.00 | 0.00 | 72 | 1018.1 |
| 20260502015033 | 16 | 246 | 4.8 | 4.8 | 0.00 | 0.00 | 0.00 | 70 | 1017.8 |
| 20260502014503 | 16 | 259 | 4.8 | 4.8 | 0.00 | 0.00 | 0.00 | 70 | 1017.6 |
| 20260502014034 | 16 | 265 | 3.2 | 4.8 | 0.00 | 0.00 | 0.00 | 73 | 1017.6 |
| 20260502013033 | 16 | 242 | 3.2 | 4.8 | 0.00 | 0.00 | 0.00 | 70 | 1017.4 |
| 20260502012503 | 16 | 209 | 4.8 | 4.8 | 0.00 | 0.00 | 0.00 | 70 | 1017.4 |
| 20260502011534 | 16 | 156 | 3.2 | 6.4 | 0.00 | 0.00 | 0.00 | 69 | 1017.1 |
| 20260502010005 | 16 | 130 | 4.8 | 6.4 | 0.00 | 0.00 | 0.00 | 69 | 1016.9 |
| 20260502004503 | 17 | 127 | 6.4 | 8.0 | 0.00 | 0.00 | 0.00 | 69 | 1016.7 |
| 20260502003503 | 17 | 129 | 4.8 | 9.7 | 0.00 | 0.00 | 0.00 | 68 | 1016.6 |
| 20260502003033 | 17 | 117 | 6.4 | 9.7 | 0.00 | 0.00 | 0.00 | 67 | 1016.5 |
| 20260502002503 | 17 | 116 | 8.0 | 8.0 | 0.00 | 0.00 | 0.00 | 66 | 1016.5 |
| 20260502002003 | 17 | 135 | 4.8 | 8.0 | 0.00 | 0.00 | 0.00 | 65 | 1016.4 |
| 20260502001503 | 17 | 116 | 6.4 | 6.4 | 0.00 | 0.00 | 0.00 | 63 | 1016.3 |
| 20260502000503 | 17 | 143 | 3.2 | 9.7 | 0.00 | 0.00 | 0.00 | 62 | 1016.2 |
| 20260502000003 | 17 | 49 | 3.2 | 9.7 | 0.00 | 0.00 | 0.00 | 61 | 1016.2 |
| 20260501235503 | 17 | 109 | 8.0 | 8.0 | 0.00 | 0.00 | 0.00 | 60 | 1016.1 |
| 20260501235004 | 17 | 100 | 8.0 | 11.3 | 0.00 | 0.00 | 0.00 | 61 | 1016.1 |
| 20260501234505 | 17 | 60 | 1.6 | 11.3 | 0.00 | 0.00 | 0.00 | 62 | 1016.0 |
| 20260501233503 | 17 | 91 | 8.0 | 14.5 | 0.00 | 0.00 | 0.00 | 60 | 1015.9 |
| 20260501233005 | 17 | 104 | 9.7 | 16.1 | 0.00 | 0.00 | 0.00 | 58 | 1015.8 |
| 20260501232504 | 17 | 97 | 9.7 | 16.1 | 0.00 | 0.00 | 0.00 | 60 | 1015.7 |
| 20260501232003 | 17 | 95 | 12.9 | 16.1 | 0.00 | 0.00 | 0.00 | 58 | 1015.6 |
| 20260501231503 | 17 | 89 | 14.5 | 16.1 | 0.00 | 0.00 | 0.00 | 57 | 1015.6 |
| 20260501231003 | 17 | 104 | 14.5 | 14.5 | 0.00 | 0.00 | 0.00 | 58 | 1015.6 |
| 20260501230504 | 17 | 100 | 12.9 | 14.5 | 0.00 | 0.00 | 0.00 | 58 | 1015.7 |
| 20260501230003 | 17 | 81 | 6.4 | 14.5 | 0.00 | 0.00 | 0.00 | 59 | 1015.7 |
| 20260501225003 | 17 | 97 | 11.3 | 14.5 | 0.00 | 0.00 | 0.00 | 59 | 1015.7 |
| 20260501224503 | 17 | 102 | 11.3 | 16.1 | 0.00 | 0.00 | 0.00 | 59 | 1015.7 |
| 20260501224003 | 18 | 89 | 11.3 | 16.1 | 0.00 | 0.00 | 0.00 | 57 | 1015.6 |
| 20260501223503 | 17 | 83 | 9.7 | 14.5 | 0.00 | 0.00 | 0.00 | 57 | 1015.5 |
| 20260501223003 | 17 | 82 | 8.0 | 14.5 | 0.00 | 0.00 | 0.00 | 56 | 1015.5 |
| 20260501222533 | 17 | 59 | 8.0 | 19.3 | 0.00 | 0.00 | 0.00 | 56 | 1015.5 |
| 20260501222003 | 17 | 78 | 9.7 | 19.3 | 0.00 | 0.00 | 0.00 | 57 | 1015.5 |
| 20260501221504 | 18 | 80 | 8.0 | 17.7 | 0.00 | 0.00 | 0.00 | 59 | 1015.4 |
| 20260501221003 | 18 | 80 | 8.0 | 17.7 | 0.00 | 0.00 | 0.00 | 57 | 1015.4 |
| 20260501220534 | 18 | 79 | 8.0 | 19.3 | 0.00 | 0.00 | 0.00 | 55 | 1015.4 |
| 20260501220004 | 18 | 101 | 19.3 | 19.3 | 0.00 | 0.00 | 0.00 | 55 | 1015.5 |
| 20260501215534 | 18 | 75 | 11.3 | 20.9 | 0.00 | 0.00 | 0.00 | 56 | 1015.5 |
| 20260501215033 | 18 | 98 | 19.3 | 20.9 | 0.00 | 0.00 | 0.00 | 56 | 1015.4 |
| 20260501214503 | 18 | 87 | 14.5 | 20.9 | 0.00 | 0.00 | 0.00 | 56 | 1015.5 |
| 20260501214004 | 18 | 99 | 17.7 | 22.5 | 0.00 | 0.00 | 0.00 | 53 | 1015.6 |
| 20260501213504 | 18 | 86 | 20.9 | 22.5 | 0.00 | 0.00 | 0.00 | 53 | 1015.6 |
| 20260501213003 | 18 | 87 | 14.5 | 19.3 | 0.00 | 0.00 | 0.00 | 55 | 1015.7 |
| 20260501212503 | 18 | 100 | 16.1 | 19.3 | 0.00 | 0.00 | 0.00 | 53 | 1015.8 |
| 20260501212003 | 18 | 103 | 16.1 | 27.4 | 0.00 | 0.00 | 0.00 | 53 | 1015.8 |
| 20260501211503 | 18 | 51 | 17.7 | 27.4 | 0.00 | 0.00 | 0.00 | 54 | 1016.0 |
| 20260501211004 | 18 | 70 | 17.7 | 24.1 | 0.00 | 0.00 | 0.00 | 54 | 1016.1 |
| 20260501210503 | 18 | 54 | 14.5 | 24.1 | 0.00 | 0.00 | 0.00 | 54 | 1016.1 |
| 20260501210003 | 18 | 61 | 22.5 | 24.1 | 0.00 | 0.00 | 0.00 | 53 | 1016.1 |
| 20260501205504 | 18 | 46 | 17.7 | 25.7 | 0.00 | 0.00 | 0.00 | 56 | 1016.2 |